Date,TemperatureHighF,TemperatureAvgF,TemperatureLowF,DewpointHighF,DewpointAvgF,DewpointLowF,HumidityHigh,HumidityAvg,HumidityLow,PressureMaxIn,PressureMinIn,WindSpeedMaxMPH,WindSpeedAvgMPH,GustSpeedMaxMPH,PrecipitationSumIn
2014-1-9,8.3,8.3,8.3,0.0,0.0,0.0,69,69,69,30.30,30.30,10,10,16,0.00
2014-1-10,8.3,8.3,8.3,0.0,0.0,0.0,69,69,69,30.30,30.30,10,10,16,0.00
2014-1-11,8.3,8.3,8.3,0.0,0.0,0.0,69,69,69,30.30,30.30,10,10,16,0.00
2014-1-12,8.3,8.3,8.3,0.0,0.0,0.0,69,69,69,30.30,30.30,10,10,16,0.00
2014-1-13,8.3,8.3,8.3,0.0,0.0,0.0,69,69,69,30.30,30.30,10,10,16,0.00
2014-1-14,8.3,8.3,8.3,0.0,0.0,0.0,69,69,69,30.30,30.30,10,10,16,0.00
2014-1-15,8.3,8.3,8.3,0.0,0.0,0.0,69,69,69,30.30,30.30,10,10,16,0.00
2014-1-16,8.3,8.3,8.3,0.0,0.0,0.0,69,69,69,30.30,30.30,10,10,16,0.00
2014-1-17,8.3,8.3,8.3,0.0,0.0,0.0,69,69,69,30.30,30.30,10,10,16,0.00
2014-1-18,8.3,8.3,8.3,0.0,0.0,0.0,69,69,69,30.30,30.30,10,10,16,0.00
2014-1-19,8.3,8.3,8.3,0.0,0.0,0.0,69,69,69,30.30,30.30,10,10,16,0.00
2014-1-20,8.3,8.3,8.3,0.0,0.0,0.0,69,69,69,30.30,30.30,10,10,16,0.00
2014-1-21,8.3,8.3,8.3,0.0,0.0,0.0,69,69,69,30.30,30.30,10,10,16,0.00
2014-1-22,8.3,1.7,-7.9,1.0,-12.3,-99.9,84,65,59,30.55,30.05,16,-60,24,0.00
2014-1-23,-2.0,-9.9,-17.5,-7.0,-16.2,-22.0,83,74,63,30.82,30.32,9,3,15,0.00
2014-1-24,31.7,22.0,-0.7,29.0,15.4,-6.0,94,76,60,30.29,29.52,13,4,21,0.05
2014-1-25,23.5,6.4,1.7,9.0,-6.7,-10.0,84,56,39,29.94,29.59,20,5,26,0.04
2014-1-26,16.2,5.3,-7.4,9.0,-1.1,-16.0,87,75,53,30.12,29.45,12,5,27,0.06
2014-1-27,-6.2,-11.8,-16.8,-16.0,-20.6,-25.0,74,65,56,30.52,30.14,12,4,19,0.00
2014-1-28,0.4,-8.7,-19.8,-10.0,-15.8,-25.0,81,71,58,30.49,30.20,10,2,13,0.00
2014-1-29,28.8,10.8,-7.3,17.0,2.0,-12.0,81,69,51,30.20,29.62,10,3,18,0.00
2014-1-30,26.9,14.9,-4.1,23.0,9.7,-10.0,92,80,69,30.09,29.52,15,4,19,0.18
2014-1-31,9.1,-1.7,-15.7,0.0,-8.1,-21.0,83,75,65,30.24,30.09,7,2,12,0.00